DW2270 Weather Reports


Display with metric or nautical units.
time (UTC)temp
F
wind
direction
speed
MPH
gust
MPH
rain 1hr
in
rain 24hr
in
rain mn
in
humidity
%
barometer
mb
20260902004944 80 260 0.0 0.0 0.00 0.19 0.20 1 1011.8
20260902003949 80 260 0.0 0.0 0.00 0.19 0.20 1 1012.0
20260902003004 80 260 0.0 0.0 0.00 0.19 0.20 1 1012.0
20260902001932 80 260 0.0 0.0 0.00 0.19 0.20 1 1012.1
20260902000908 80 260 0.0 0.0 0.00 0.19 0.20 1 1012.0
20260901235907 79 260 0.0 0.0 0.00 0.19 0.20 1 1011.9
20260901234848 79 260 0.0 0.0 0.00 0.19 0.20 1 1012.0
20260901233855 80 260 0.0 0.0 0.00 0.19 0.20 1 1012.1
20260901231702 80 259 0.0 0.0 0.04 0.19 0.19 1 1012.1
20260901230721 80 260 0.0 0.0 0.09 0.19 0.19 1 1012.3
20260901225724 80 260 0.0 0.0 0.04 0.18 0.18 1 1012.5
20260901224729 80 260 0.0 0.0 0.04 0.16 0.17 1 1012.7
20260901223736 80 260 0.0 0.0 0.05 0.16 0.16 1 1012.9
20260901222751 81 259 0.0 0.0 0.16 0.16 0.16 1 1013.2
20260901221752 82 260 0.0 0.0 0.25 0.13 0.13 1 1013.4
20260901220740 83 0 1.0 12.0 0.64 0.08 0.09 1 1013.5
20260901215749 86 74 2.0 12.0 0.00 0.00 0.00 33 1013.3
20260901214727 91 5 1.0 11.0 0.00 0.00 0.00 54 1012.8
20260901213721 92 319 0.0 3.0 0.00 0.00 0.00 55 1012.4
20260901212705 92 344 0.0 2.0 0.00 0.00 0.00 55 1012.2
20260901211720 92 229 0.0 0.0 0.00 0.00 0.00 55 1012.2
20260901210703 92 223 0.0 3.0 0.00 0.00 0.00 54 1012.2
20260901205710 92 141 0.0 1.0 0.00 0.00 0.00 55 1012.3
20260901204724 92 209 0.0 4.0 0.00 0.00 0.00 55 1012.2
20260901203712 92 233 0.0 3.0 0.00 0.00 0.00 55 1012.3
20260901202707 91 207 0.0 2.0 0.00 0.00 0.00 55 1012.5
20260901200539 91 9 0.0 4.0 0.00 0.00 0.00 55 1013.1
20260901194408 91 292 0.0 1.0 0.00 0.00 0.00 51 1013.7
20260901193426 91 239 0.0 4.0 0.00 0.00 0.00 52 1013.8
20260901192420 91 200 0.0 4.0 0.00 0.00 0.00 48 1013.8
20260901191411 90 200 0.0 1.0 0.00 0.00 0.00 41 1013.6
20260901190419 90 200 0.0 1.0 0.00 0.00 0.00 37 1013.5
20260901185434 89 200 0.0 4.0 0.00 0.00 0.00 35 1013.6
20260901184457 89 130 0.0 4.0 0.00 0.00 0.00 29 1013.8
20260901182329 88 248 0.0 1.0 0.00 0.00 0.00 18 1014.0
20260901180201 87 123 0.0 1.0 0.00 0.00 0.00 6 1014.3
20260901175202 87 123 0.0 0.0 0.00 0.00 0.00 5 1014.6
20260901174141 86 237 0.0 0.0 0.00 0.00 0.00 3 1014.7
20260901170844 86 237 0.0 2.0 0.00 0.00 0.00 14 1015.4
20260901165833 86 229 0.0 1.0 0.00 0.00 0.00 21 1015.5
20260901164855 86 229 0.0 3.0 0.00 0.00 0.00 22 1015.6
20260901163856 86 215 0.0 3.0 0.00 0.00 0.00 21 1015.6
20260901162839 86 205 0.0 2.0 0.00 0.00 0.00 21 1015.6
20260901160624 86 26 0.0 3.0 0.00 0.00 0.00 10 1015.5
20260901155627 86 214 0.0 1.0 0.00 0.00 0.00 9 1015.4
20260901154652 86 355 0.0 2.0 0.00 0.00 0.00 7 1015.3
20260901153634 86 342 0.0 3.0 0.00 0.00 0.00 8 1015.4
20260901152602 86 251 0.0 5.0 0.00 0.00 0.00 5 1015.5
20260901151529 86 292 0.0 5.0 0.00 0.00 0.00 1 1015.5
20260901145421 85 307 0.0 2.0 0.00 0.00 0.00 1 1015.5
20260901143306 83 232 0.0 2.0 0.00 0.00 0.00 1 1015.6
20260901142305 82 0 0.0 2.0 0.00 0.00 0.00 1 1015.5
20260901141317 81 81 0.0 1.0 0.00 0.00 0.00 1 1015.6
20260901140329 80 315 0.0 0.0 0.00 0.00 0.00 1 1015.7
20260901135326 80 177 0.0 0.0 0.00 0.00 0.00 1 1015.8
20260901134343 79 177 0.0 0.0 0.00 0.00 0.00 1 1015.6
20260901132232 79 177 0.0 0.0 0.00 0.00 0.00 1 1015.6
20260901131219 78 177 0.0 0.0 0.00 0.00 0.00 1 1015.5
20260901130233 78 177 0.0 0.0 0.00 0.00 0.00 1 1015.2
20260901125219 78 177 0.0 0.0 0.00 0.00 0.00 1 1015.2
20260901124206 78 177 0.0 0.0 0.00 0.00 0.00 1 1015.1
20260901123150 78 177 0.0 0.0 0.00 0.00 0.00 1 1015.0
20260901122134 78 177 0.0 0.0 0.00 0.00 0.00 1 1014.8
20260901121155 78 177 0.0 0.0 0.00 0.00 0.00 1 1014.7
20260901120215 78 177 0.0 0.0 0.00 0.00 0.00 1 1014.7
20260901115238 78 177 0.0 0.0 0.00 0.00 0.00 1 1014.6
20260901114209 79 177 0.0 0.0 0.00 0.00 0.00 1 1014.5
20260901113211 79 177 0.0 0.0 0.00 0.00 0.00 1 1014.4
20260901112222 79 177 0.0 0.0 0.00 0.00 0.00 1 1014.5
20260901111244 79 177 0.0 0.0 0.00 0.00 0.00 1 1014.5
20260901105121 79 177 0.0 0.0 0.00 0.00 0.00 1 1014.4
20260901104129 79 177 0.0 0.0 0.00 0.00 0.00 1 1014.4
20260901103144 79 177 0.0 0.0 0.00 0.00 0.00 1 1014.4
20260901095927 79 177 0.0 0.0 0.00 0.00 0.00 1 1014.3
20260901094856 79 177 0.0 0.0 0.00 0.00 0.00 1 1014.2
20260901093829 79 177 0.0 0.0 0.00 0.00 0.00 1 1014.3
20260901091654 80 177 0.0 0.0 0.00 0.00 0.00 1 1014.3
20260901090634 80 0 0.0 0.0 0.00 0.00 0.00 1 1014.4
20260901085608 80 0 0.0 0.0 0.00 0.00 0.00 1 1014.4
20260901084553 80 0 0.0 0.0 0.00 0.00 0.00 1 1014.3
20260901083555 80 0 0.0 0.0 0.00 0.00 0.00 1 1014.4
20260901082543 80 0 0.0 0.0 0.00 0.00 0.00 1 1014.4
20260901080419 81 0 0.0 0.0 0.00 0.00 0.00 1 1014.4
20260901075349 81 0 0.0 0.0 0.00 0.00 0.00 1 1014.5
20260901073226 81 177 0.0 0.0 0.00 0.00 0.00 1 1014.6
20260901072201 82 0 0.0 0.0 0.00 0.00 0.00 1 1014.6
20260901071138 82 0 0.0 0.0 0.00 0.00 0.00 1 1014.5
20260901070131 82 0 0.0 0.0 0.00 0.00 0.00 1 1014.6
20260901065150 82 0 0.0 0.0 0.00 0.00 0.00 1 1014.6
20260901064124 83 0 0.0 0.0 0.00 0.00 0.00 1 1014.7
20260901061937 83 0 0.0 0.0 0.00 0.00 0.00 1 1014.8
20260901060941 83 0 0.0 0.0 0.00 0.00 0.00 1 1014.8
20260901055924 83 177 0.0 0.0 0.00 0.00 0.00 1 1014.8
20260901054859 84 177 0.0 0.0 0.00 0.00 0.00 1 1014.7
20260901053837 84 0 0.0 0.0 0.00 0.00 0.00 1 1014.7
20260901052811 84 177 0.0 0.0 0.00 0.00 0.00 1 1014.7
20260901051832 84 0 0.0 0.0 0.00 0.00 0.00 1 1014.6
20260901050820 84 177 0.0 0.0 0.00 0.00 0.00 1 1014.6
20260901045755 84 177 0.0 0.0 0.00 0.00 0.00 1 1014.5
20260901044745 84 177 0.0 0.0 0.00 0.00 0.00 1 1014.5
20260901043750 84 177 0.0 0.0 0.00 0.00 0.00 1 1014.4
20260901042808 84 177 0.0 0.0 0.00 0.00 0.00 1 1014.4
20260901041735 84 177 0.0 1.0 0.00 0.00 0.00 1 1014.4
20260901040706 84 178 0.0 0.0 0.00 0.00 0.00 1 1014.3
20260901035631 84 178 0.0 0.0 0.00 0.00 0.00 1 1014.4
20260901034641 84 0 0.0 1.0 0.00 0.00 0.00 1 1014.0
20260901033606 84 0 0.0 0.0 0.00 0.00 0.00 1 1014.0
20260901032621 84 0 0.0 0.0 0.00 0.00 0.00 1 1013.9
20260901030533 85 178 0.0 0.0 0.00 0.00 0.00 3 1013.5
20260901025555 85 178 0.0 0.0 0.00 0.00 0.00 6 1013.4
20260901024618 85 178 0.0 0.0 0.00 0.00 0.00 8 1013.4
20260901023545 85 178 0.0 0.0 0.00 0.00 0.00 11 1013.2
20260901022524 85 178 0.0 0.0 0.00 0.00 0.00 10 1013.2
20260901021458 86 178 0.0 0.0 0.00 0.00 0.00 11 1013.0
20260901020436 86 178 0.0 0.0 0.00 0.00 0.00 13 1013.0
20260901015405 87 178 0.0 0.0 0.00 0.00 0.00 11 1012.8
20260901014338 87 178 0.0 0.0 0.00 0.00 0.00 16 1012.7
20260901012158 88 178 0.0 0.0 0.00 0.00 0.00 20 1012.6
20260901011217 88 178 0.0 0.0 0.00 0.00 0.00 24 1012.7
20260901010205 88 178 0.0 0.0 0.00 0.00 0.00 26 1012.6